timestamp,wind_dir_avg,wind_spd_avg,wind_spd_max_dir,wind_spd_gust,battery_voltage,lat,long
2021-12-25 00:04:01+00:00,243.0,12.92,237.0,14.49,12.57,47.59359,-54.27349
2021-12-25 00:14:01+00:00,242.0,13.23,255.0,15.82,12.49,47.59359,-54.27349
2021-12-25 00:24:01+00:00,251.0,13.65,256.0,19.63,12.49,47.59359,-54.27349
2021-12-25 00:34:01+00:00,246.0,12.32,249.0,16.13,12.49,47.59359,-54.27349
2021-12-25 00:44:01+00:00,244.0,12.65,242.0,14.28,12.49,47.59359,-54.27349
2021-12-25 00:54:01+00:00,242.0,12.54,252.0,14.71,12.49,47.59359,-54.27349
2021-12-25 01:04:01+00:00,241.0,15.86,248.0,22.17,12.49,47.59359,-54.27349
2021-12-25 01:14:01+00:00,243.0,17.28,247.0,22.16,12.49,47.59359,-54.27349
2021-12-25 01:24:01+00:00,244.0,12.72,250.0,22.04,12.49,47.59359,-54.27349
2021-12-25 01:34:01+00:00,243.0,12.18,254.0,17.35,12.49,47.59359,-54.27349
2021-12-25 01:44:01+00:00,252.0,14.3,256.0,21.6,12.49,47.59359,-54.27349
2021-12-25 01:54:01+00:00,250.0,11.92,253.0,15.57,12.49,47.59359,-54.27349
2021-12-25 02:04:01+00:00,249.0,13.19,260.0,17.41,12.49,47.59359,-54.27349
2021-12-25 02:14:01+00:00,250.0,12.34,255.0,14.93,12.41,47.59359,-54.27349
2021-12-25 02:24:01+00:00,250.0,11.81,254.0,15.23,12.41,47.59359,-54.27349
2021-12-25 02:34:01+00:00,242.0,13.83,243.0,15.95,12.41,47.59359,-54.27349
2021-12-25 02:44:01+00:00,241.0,17.21,246.0,23.28,12.41,47.59359,-54.27349
2021-12-25 02:54:01+00:00,254.0,11.93,253.0,15.6,12.41,47.59359,-54.27349
2021-12-25 03:04:01+00:00,253.0,12.65,255.0,16.16,12.41,47.59359,-54.27349
2021-12-25 03:14:01+00:00,246.0,12.1,235.0,14.08,12.41,47.59359,-54.27349
2021-12-25 03:24:01+00:00,235.0,12.77,234.0,14.3,12.41,47.59359,-54.27349
2021-12-25 03:34:01+00:00,250.0,14.98,254.0,22.25,12.41,47.59359,-54.27349
2021-12-25 03:44:01+00:00,240.0,13.19,250.0,16.99,12.41,47.59359,-54.27349
2021-12-25 03:54:01+00:00,243.0,12.96,250.0,16.73,12.41,47.59359,-54.27349
2021-12-25 04:04:01+00:00,241.0,12.94,252.0,16.44,12.41,47.59359,-54.27349
2021-12-25 04:14:01+00:00,232.0,14.77,240.0,22.65,12.41,47.59359,-54.27349
2021-12-25 04:24:01+00:00,232.0,14.16,238.0,17.99,12.41,47.59359,-54.27349
2021-12-25 04:34:01+00:00,233.0,13.92,225.0,17.72,12.41,47.59359,-54.27349
2021-12-25 04:44:01+00:00,237.0,12.96,238.0,15.83,12.41,47.59359,-54.27349
2021-12-25 04:54:01+00:00,234.0,14.0,242.0,17.45,12.41,47.59359,-54.27349
2021-12-25 05:04:01+00:00,243.0,13.98,254.0,20.0,12.41,47.59359,-54.27349
2021-12-25 05:14:01+00:00,238.0,13.11,238.0,14.5,12.33,47.59359,-54.27349
2021-12-25 05:24:01+00:00,234.0,13.88,239.0,17.77,12.33,47.59359,-54.27349
2021-12-25 05:34:01+00:00,230.0,14.24,222.0,17.28,12.33,47.59359,-54.27349
2021-12-25 05:44:01+00:00,235.0,13.13,231.0,15.58,12.33,47.59359,-54.27349
2021-12-25 05:54:01+00:00,228.0,14.42,220.0,17.68,12.33,47.59359,-54.27349
2021-12-25 06:04:01+00:00,230.0,14.34,232.0,18.15,12.33,47.59359,-54.27349
2021-12-25 06:14:00+00:00,232.0,14.12,231.0,15.54,12.33,47.59359,-54.27349
2021-12-25 06:24:00+00:00,229.0,14.16,225.0,17.12,12.33,47.59359,-54.27349
2021-12-25 06:34:00+00:00,231.0,13.6,237.0,15.97,12.33,47.59359,-54.27349
2021-12-25 06:44:00+00:00,227.0,14.45,223.0,17.05,12.33,47.59359,-54.27349
2021-12-25 06:54:00+00:00,224.0,15.39,226.0,18.04,12.33,47.59359,-54.27349
2021-12-25 07:04:00+00:00,231.0,13.74,246.0,21.86,12.33,47.59359,-54.27349
2021-12-25 07:14:01+00:00,222.0,15.99,218.0,18.4,12.33,47.59359,-54.27349
2021-12-25 07:24:01+00:00,226.0,15.12,218.0,18.18,12.33,47.59359,-54.27349
2021-12-25 07:34:01+00:00,225.0,16.44,229.0,20.9,12.33,47.59359,-54.27349
2021-12-25 07:44:01+00:00,224.0,15.57,216.0,18.06,12.33,47.59359,-54.27349
2021-12-25 07:54:01+00:00,231.0,14.32,223.0,17.57,12.33,47.59359,-54.27349
2021-12-25 08:04:01+00:00,227.0,15.3,219.0,17.86,12.33,47.59359,-54.27349
2021-12-25 08:14:00+00:00,229.0,15.58,238.0,17.31,12.33,47.59359,-54.27349
2021-12-25 08:24:00+00:00,244.0,13.74,244.0,15.21,12.33,47.59359,-54.27349
2021-12-25 08:34:00+00:00,244.0,13.74,241.0,15.42,12.33,47.59359,-54.27349
2021-12-25 08:44:00+00:00,247.0,12.03,243.0,13.89,12.33,47.59359,-54.27349
2021-12-25 08:54:00+00:00,236.0,12.07,235.0,14.27,12.33,47.59359,-54.27349
2021-12-25 09:04:00+00:00,240.0,10.65,238.0,12.01,12.33,47.59359,-54.27349
2021-12-25 09:14:01+00:00,242.0,11.54,242.0,12.75,12.33,47.59359,-54.27349
2021-12-25 09:24:01+00:00,227.0,9.76,237.0,11.79,12.33,47.59359,-54.27349
2021-12-25 09:34:01+00:00,232.0,10.86,232.0,12.87,12.33,47.59359,-54.27349
2021-12-25 09:44:01+00:00,231.0,9.44,227.0,11.01,12.33,47.59359,-54.27349
2021-12-25 09:54:01+00:00,242.0,9.99,244.0,11.7,12.33,47.59359,-54.27349
2021-12-25 10:04:01+00:00,249.0,9.18,248.0,10.94,12.33,47.59359,-54.27349
2021-12-25 10:14:01+00:00,244.0,10.54,247.0,12.2,12.33,47.59359,-54.27349
2021-12-25 10:24:01+00:00,261.0,7.86,264.0,10.33,12.33,47.59359,-54.27349
2021-12-25 10:34:01+00:00,278.0,9.39,277.0,10.35,12.33,47.59359,-54.27349
2021-12-25 10:44:01+00:00,301.0,9.29,301.0,11.76,12.33,47.59359,-54.27349
2021-12-25 10:54:01+00:00,302.0,10.55,306.0,14.95,12.33,47.59359,-54.27349
2021-12-25 11:04:01+00:00,311.0,9.4,307.0,12.58,12.33,47.59359,-54.27349
2021-12-25 11:14:01+00:00,304.0,10.36,296.0,13.7,12.33,47.59359,-54.27349
2021-12-25 11:24:01+00:00,319.0,11.13,310.0,16.59,12.33,47.59359,-54.27349
2021-12-25 11:34:01+00:00,318.0,11.15,305.0,15.49,12.33,47.59359,-54.27349
2021-12-25 11:44:01+00:00,313.0,14.15,308.0,17.46,12.33,47.59359,-54.27349
2021-12-25 11:54:01+00:00,312.0,13.54,308.0,17.52,12.33,47.59359,-54.27349
2021-12-25 12:04:01+00:00,313.0,13.16,309.0,16.72,12.33,47.59359,-54.27349
2021-12-25 12:14:00+00:00,317.0,12.0,305.0,16.15,12.41,47.59359,-54.27349
2021-12-25 12:24:00+00:00,313.0,8.63,311.0,10.83,12.41,47.59359,-54.27349
2021-12-25 12:34:00+00:00,313.0,9.03,313.0,11.31,12.41,47.59359,-54.27349
2021-12-25 12:44:00+00:00,314.0,7.07,326.0,8.31,12.41,47.59359,-54.27349
2021-12-25 12:54:00+00:00,320.0,7.26,325.0,8.66,12.41,47.59359,-54.27349
2021-12-25 13:04:00+00:00,310.0,5.17,311.0,6.7,12.41,47.59359,-54.27349
2021-12-25 13:14:01+00:00,315.0,4.97,302.0,6.25,12.89,47.59359,-54.27349
2021-12-25 13:24:01+00:00,317.0,6.16,315.0,7.91,12.89,47.59359,-54.27349
2021-12-25 13:34:01+00:00,324.0,7.18,326.0,8.49,12.89,47.59359,-54.27349
2021-12-25 13:44:01+00:00,320.0,6.3,314.0,8.25,12.89,47.59359,-54.27349
2021-12-25 13:54:01+00:00,320.0,7.1,312.0,9.39,12.89,47.59359,-54.27349
2021-12-25 14:04:01+00:00,321.0,8.34,323.0,10.75,12.89,47.59359,-54.27349
2021-12-25 14:14:00+00:00,327.0,8.53,322.0,10.8,13.68,47.59359,-54.27349
2021-12-25 14:24:00+00:00,321.0,7.9,310.0,10.71,13.68,47.59359,-54.27349
2021-12-25 14:34:00+00:00,309.0,8.52,306.0,11.01,13.68,47.59359,-54.27349
2021-12-25 14:44:00+00:00,327.0,8.05,329.0,9.02,13.68,47.59359,-54.27349
2021-12-25 14:54:00+00:00,316.0,6.9,306.0,10.62,13.68,47.59359,-54.27349
2021-12-25 15:04:00+00:00,310.0,6.68,307.0,9.1,13.68,47.59359,-54.27349
2021-12-25 15:14:00+00:00,325.0,6.82,320.0,7.91,14.08,47.59359,-54.27349
2021-12-25 15:24:00+00:00,318.0,6.08,312.0,7.21,14.08,47.59359,-54.27349
2021-12-25 15:34:00+00:00,325.0,7.77,326.0,9.24,14.08,47.59359,-54.27349
2021-12-25 15:44:00+00:00,325.0,7.49,326.0,8.54,14.08,47.59359,-54.27349
2021-12-25 15:54:00+00:00,321.0,8.82,323.0,10.97,14.08,47.59359,-54.27349
2021-12-25 16:04:00+00:00,323.0,7.31,324.0,8.61,14.08,47.59359,-54.27349
2021-12-25 16:14:01+00:00,317.0,8.44,313.0,10.14,13.68,47.59359,-54.27349
2021-12-25 16:24:01+00:00,308.0,5.85,311.0,7.09,13.68,47.59359,-54.27349
2021-12-25 16:34:01+00:00,319.0,6.07,312.0,7.32,13.68,47.59359,-54.27349
2021-12-25 16:44:01+00:00,296.0,5.64,292.0,7.83,13.68,47.59359,-54.27349
2021-12-25 16:54:01+00:00,301.0,6.15,296.0,7.49,13.68,47.59359,-54.27349
2021-12-25 17:04:01+00:00,319.0,6.57,324.0,8.16,13.68,47.59359,-54.27349
2021-12-25 17:14:01+00:00,320.0,6.97,300.0,8.41,14.16,47.59359,-54.27349
2021-12-25 17:24:01+00:00,320.0,10.37,306.0,12.43,14.16,47.59359,-54.27349
2021-12-25 17:34:01+00:00,334.0,7.92,336.0,9.3,14.16,47.59359,-54.27349
2021-12-25 17:44:01+00:00,338.0,8.06,343.0,9.69,14.16,47.59359,-54.27349
2021-12-25 17:54:01+00:00,351.0,6.95,357.0,9.91,14.16,47.59359,-54.27349
2021-12-25 18:04:01+00:00,347.0,8.76,353.0,10.75,14.16,47.59359,-54.27349
2021-12-25 18:14:01+00:00,338.0,7.88,345.0,9.0,13.44,47.59359,-54.27349
2021-12-25 18:24:01+00:00,336.0,9.29,318.0,11.34,13.44,47.59359,-54.27349
2021-12-25 18:34:01+00:00,349.0,9.65,347.0,10.47,13.44,47.59359,-54.27349
2021-12-25 18:44:01+00:00,353.0,9.8,357.0,11.32,13.44,47.59359,-54.27349
2021-12-25 18:54:01+00:00,342.0,9.6,339.0,11.39,13.44,47.59359,-54.27349
2021-12-25 19:04:01+00:00,340.0,9.12,340.0,10.7,13.44,47.59359,-54.27349
2021-12-25 19:14:01+00:00,342.0,7.65,339.0,9.54,13.37,47.59359,-54.27349
2021-12-25 19:24:01+00:00,352.0,8.05,353.0,9.58,13.37,47.59359,-54.27349
2021-12-25 19:34:01+00:00,347.0,7.47,342.0,8.72,13.37,47.59359,-54.27349
2021-12-25 19:44:01+00:00,342.0,7.74,343.0,8.96,13.37,47.59359,-54.27349
2021-12-25 19:54:01+00:00,341.0,8.58,339.0,9.97,13.37,47.59359,-54.27349
2021-12-25 20:04:01+00:00,333.0,8.54,336.0,9.82,13.37,47.59359,-54.27349
2021-12-25 20:14:01+00:00,323.0,7.75,325.0,8.61,12.73,47.59359,-54.27349
2021-12-25 20:24:01+00:00,320.0,6.77,328.0,8.9,12.73,47.59359,-54.27349
2021-12-25 20:34:01+00:00,320.0,7.64,326.0,9.83,12.73,47.59359,-54.27349
2021-12-25 20:44:01+00:00,323.0,7.75,310.0,9.52,12.73,47.59359,-54.27349
2021-12-25 20:54:01+00:00,328.0,7.56,328.0,8.83,12.73,47.59359,-54.27349
2021-12-25 21:04:01+00:00,321.0,8.53,321.0,11.68,12.73,47.59359,-54.27349
2021-12-25 21:14:01+00:00,330.0,8.99,324.0,11.39,12.65,47.59359,-54.27349
2021-12-25 21:24:01+00:00,324.0,8.52,325.0,9.51,12.65,47.59359,-54.27349
2021-12-25 21:34:01+00:00,328.0,8.03,326.0,9.83,12.65,47.59359,-54.27349
2021-12-25 21:44:01+00:00,319.0,8.5,320.0,9.87,12.65,47.59359,-54.27349
2021-12-25 21:54:01+00:00,329.0,8.38,326.0,10.2,12.65,47.59359,-54.27349
2021-12-25 22:04:01+00:00,324.0,9.14,315.0,11.47,12.65,47.59359,-54.27349
2021-12-25 22:14:01+00:00,320.0,9.5,311.0,11.85,12.57,47.59359,-54.27349
2021-12-25 22:24:01+00:00,314.0,9.25,316.0,11.26,12.57,47.59359,-54.27349
2021-12-25 22:34:01+00:00,322.0,9.21,312.0,10.67,12.57,47.59359,-54.27349
2021-12-25 22:44:01+00:00,312.0,9.08,303.0,12.53,12.57,47.59359,-54.27349
2021-12-25 22:54:01+00:00,315.0,9.8,301.0,14.73,12.57,47.59359,-54.27349
2021-12-25 23:04:01+00:00,323.0,9.84,319.0,11.35,12.57,47.59359,-54.27349
2021-12-25 23:14:01+00:00,319.0,10.56,306.0,13.25,12.57,47.59359,-54.27349
2021-12-25 23:24:01+00:00,310.0,9.15,296.0,12.02,12.57,47.59359,-54.27349
2021-12-25 23:34:01+00:00,307.0,11.84,303.0,16.25,12.57,47.59359,-54.27349
2021-12-25 23:44:01+00:00,319.0,9.22,307.0,12.09,12.57,47.59359,-54.27349
2021-12-25 23:54:01+00:00,317.0,10.2,302.0,14.69,12.57,47.59359,-54.27349
